Weather in Fuzuli

Azerbaijan     39°36′00″N   47°08′40″E
temp.,
°C
wind,
m/s
gust,
m/s
humid.,
%
clouds,
%
prec.,
mm/h
press.,
hPa
HPBL,
m
21 april, wed
wed2101:00+21wsw1159100 0.0 101211
04:00+19ene116025 0.0 101211
07:00+19sw116581 0.0 101311
10:00+25s334799 0.0 1013458
13:00+30ese3331100 0.0 1010917
16:00+29ene6638100 0.0 10091057
19:00+21wsw71271100 1.1 1013539
22:00+16nne1284100 6.3 101667
22 april, thu
thu2201:00+16ene1183100 0.0 101515
04:00+15n3689100 0.0 1017141
07:00+14nnw4685100 0.0 1018304
10:00+18n4567100 0.0 1018595
13:00+23ne555268 0.0 1016990
16:00+22ne665399 0.0 10151095
19:00+17ene5870100 0.0 1017409
22:00+13nne3481100 0.1 1019238
23 april, fri
fri2301:00+14s2380100 0.0 101576
04:00+12n23887 0.0 101550
07:00+12n69883 0.0 1017406
10:00+17nne66649 0.0 1018880
13:00+20nne565849 0.0 10181217
16:00+23ene334340 0.0 10161736
19:00+20n365072 0.0 1018219
22:00+16n33644 0.0 102038
24 april, sat
sat2401:00+12n45835 0.0 1020122
04:00+11nnw58785 0.0 1020266
07:00+11n57789 0.0 1021378
10:00+15n66644 0.0 1021745
13:00+20nne665338 0.0 10191270
16:00+21nne554833 0.0 10181509
19:00+19nne34570 0.0 101891
22:00+16nw11640 0.0 101911
25 april, sun
sun2501:00+14nnw12700 0.0 102011
04:00+13nne22800 0.0 102013
07:00+13n22850 0.0 102083
10:00+18ne22640 0.0 1019591
13:00+22ne43510 0.0 10161117
16:00+24ne33460 0.0 10131119
19:00+21nne235799 0.0 101245
22:00+17w11725 0.0 101411